Weather History for Reading, PA

Change the Weather History Date:

Wednesday, March 27, 2013

  Actual Average Record
Temperature  
Mean Temperature 42 °F 45 °F  
Max Temperature 51 °F 55 °F 85 °F (1998)
Min Temperature 33 °F 35 °F 18 °F (2014)
Degree Days  
Heating Degree Days 23 20  
Month to date heating degree days 692 665  
Since 1 July heating degree days 4403 4707  
Cooling Degree Days 0 0  
Month to date cooling degree days 0 0  
Year to date cooling degree days 0 0  
Moisture  
Dew Point 28 °F    
Average Humidity 66    
Maximum Humidity 89    
Minimum Humidity 42    
Precipitation  
Precipitation 0.00 in 0.14 in 2.00 in (1978)
Month to date precipitation 2.03 2.94  
Year to date precipitation 6.97 8.47  
Sea Level Pressure  
Sea Level Pressure 29.99 in    
Wind  
Wind Speed 11 mph (WNW)    
Max Wind Speed 24 mph    
Max Gust Speed 30 mph    
Visibility 10 miles    
Events      
T = Trace of Precipitation, MM = Missing Value Source: NWS Daily Summary

Daily Weather History Graph

Daily Weather History Graph

Search for Another Location

Airport:

Trip Planner

Search our weather history database for the weather conditions in past years. The results will help you decide how hot, cold, wet, or windy it might be!

Date:

Astronomy

Mar. 27, 2013 Rise Set
Actual Time 6:55 AM EDT 7:23 PM EDT
Civil Twilight 6:28 AM EDT 7:50 PM EDT
Nautical Twilight 5:55 AM EDT 8:23 PM EDT
Astronomical Twilight 5:23 AM EDT 8:56 PM EDT
Moon 8:04 PM EDT (3/27) 6:44 AM EDT (3/27)
Length of Visible Light 13h 22m
Length of Day
12h 28m
Full, 100% of the Moon is Illuminated
Mar 27
Full
Apr 3
Last Quarter
Apr 10
New
Apr 18
First Quarter
Apr 25
Full

Hourly Weather History & Observations

Time (EDT) Temp. Windchill Dew Point Humidity Pressure Visibility Wind Dir Wind Speed Gust Speed Precip Events Conditions
12:54 AM 39.0 °F 32.8 °F 30.9 °F 73% 29.95 in 10.0 mi WNW 9.2 mph - 0.00 in   Overcast
1:54 AM 39.9 °F 35.8 °F 30.9 °F 70% 29.95 in 10.0 mi WNW 5.8 mph - N/A   Overcast
2:54 AM 39.0 °F - 30.9 °F 73% 29.95 in 10.0 mi Calm Calm - N/A   Overcast
3:54 AM 36.0 °F 33.3 °F 30.0 °F 79% 29.94 in 10.0 mi West 3.5 mph - N/A   Clear
4:54 AM 33.1 °F - 30.0 °F 89% 29.94 in 10.0 mi Calm Calm - N/A   Clear
5:54 AM 35.1 °F 32.2 °F 28.9 °F 78% 29.96 in 10.0 mi SE 3.5 mph - N/A   Clear
6:54 AM 36.0 °F 32.1 °F 28.0 °F 73% 29.98 in 10.0 mi West 4.6 mph - N/A   Overcast
7:54 AM 39.0 °F 34.0 °F 28.9 °F 67% 29.99 in 10.0 mi WNW 6.9 mph - N/A   Overcast
8:54 AM 42.1 °F 36.6 °F 28.9 °F 60% 30.00 in 10.0 mi West 9.2 mph - N/A   Scattered Clouds
9:54 AM 44.1 °F 36.5 °F 27.0 °F 51% 30.01 in 10.0 mi WNW 17.3 mph 26.5 mph N/A   Scattered Clouds
10:54 AM 45.0 °F 37.6 °F 27.0 °F 49% 30.00 in 10.0 mi WNW 17.3 mph - N/A   Scattered Clouds
11:54 AM 45.0 °F 37.6 °F 25.0 °F 46% 30.00 in 10.0 mi WNW 17.3 mph 26.5 mph N/A   Scattered Clouds
12:54 PM 46.0 °F 38.5 °F 26.1 °F 46% 29.99 in 10.0 mi WNW 19.6 mph 26.5 mph N/A   Mostly Cloudy
1:54 PM 48.0 °F - 26.1 °F 42% 29.99 in 10.0 mi NW 17.3 mph 24.2 mph N/A   Mostly Cloudy
2:54 PM 48.9 °F - 28.0 °F 44% 29.97 in 10.0 mi WNW 20.7 mph 27.6 mph N/A   Scattered Clouds
3:54 PM 50.0 °F - 28.0 °F 43% 29.97 in 10.0 mi West 19.6 mph 24.2 mph N/A   Scattered Clouds
4:54 PM 48.9 °F - 26.1 °F 41% 29.97 in 10.0 mi WNW 11.5 mph 23.0 mph N/A   Clear
5:54 PM 46.9 °F - 24.1 °F 41% 29.99 in 10.0 mi WNW 11.5 mph - N/A   Mostly Cloudy
6:54 PM 46.9 °F - 25.0 °F 42% 30.00 in 10.0 mi NW 18.4 mph 25.3 mph N/A   Overcast
7:54 PM 44.1 °F 38.1 °F 27.0 °F 51% 30.03 in 10.0 mi West 11.5 mph - N/A   Clear
8:54 PM 41.0 °F 36.4 °F 28.0 °F 60% 30.04 in 10.0 mi West 6.9 mph - N/A   Clear
9:54 PM 41.0 °F 33.9 °F 27.0 °F 57% 30.06 in 10.0 mi WNW 12.7 mph - N/A   Clear
10:54 PM 39.0 °F 34.8 °F 27.0 °F 62% 30.06 in 10.0 mi WNW 5.8 mph - N/A   Clear
11:54 PM 37.9 °F 32.1 °F 27.0 °F 65% 30.06 in 10.0 mi WNW 8.1 mph - N/A   Clear